Regional Weather Roundup
Issued by NWS

Home | Current Version | Previous Version | Text Only | Print | Product List | Glossary Off
Versions: 1 2 3 4 5 6 7 8 9 10 11 12 13 14 15 16 17 18 19 20 21 22 23 24 25 26 27 28 29 30 31 32 33 34 35 36 37 38 39 40 41 42 43 44 45 46 47 48 49 50

000
ASUS43 KLOT 042001
RWRIL

ILLINOIS REGIONAL WEATHER ROUNDUP
NATIONAL WEATHER SERVICE CHICAGO/ROMEOVILLE IL
300 PM CDT FRI SEP 04 2015

NOTE: "FAIR" INDICATES FEW OR NO CLOUDS BELOW 12,000 FEET WITH NO
SIGNIFICANT WEATHER AND/OR OBSTRUCTIONS TO VISIBILITY.

* THESE STATIONS ARE NOT UNDER NWS QUALITY CONTROL. THEY ALSO MAY NOT
  REPORT WEATHER SUCH AS PRECIPITATION OR FOG.

ILZ001-002-007-009-015-016-024-042100-
NORTHWEST ILLINOIS

CITY           SKY/WX    TMP DP  RH WIND       PRES   REMARKS
MOLINE         MOSUNNY   91  69  48 S5        29.97F HX  96
STERLING*      MOSUNNY  N/A N/A N/A NW7       29.96F
$$

ILZ003-004-008-010-011-017-018-042100-
NORTH CENTRAL ILLINOIS

CITY           SKY/WX    TMP DP  RH WIND       PRES   REMARKS
ROCKFORD       MOSUNNY   89  73  59 VRB3      30.01S HX  97
FREEPORT*      SUNNY     87  72  60 W7        30.02S HX  93
$$

ILZ005-006-012>014-019>023-042100-
NORTHEAST ILLINOIS

CITY           SKY/WX    TMP DP  RH WIND       PRES   REMARKS
CHICAGO-OHARE  MOSUNNY   83  68  60 NE13      30.00S HX  86
CHICAGO-MIDWAY MOSUNNY   82  68  62 E12       30.01R HX  85
AURORA         SUNNY     88  73  61 W6        30.01S HX  95
LANSING*       PTSUNNY   82  69  64 NE10      30.01S HX  86
WAUKEGAN       MOSUNNY   74  66  76 E8        30.02F
DUPAGE AIRPORT SUNNY     86  70  58 CALM      30.00S HX  90
WHEELING       MOSUNNY   77  66  68 E8        30.03S
NORTHERLY ISL    N/A     72  66  81 NE6         N/A
$$

LMZ740>746-042100-
SOUTHERN LAKE MICHIGAN

STATION/POSITION SKY/WX   TEMP    WIND        PRES    VSBY  WAVE
                          AIR SEA DIR/SP/G                  HT/PER
                          (F)     (DEG/KT/KT) (MB)    (MI)  (FT/S)
SOUTHERN BUOY              69 71  340/  4/  8 1016.4F         1
WILMETTE HARBOR            68 71  210/  6/  8   N/A           1/ 4
HARRISON CRIB              69      10/  9/ 11   N/A
BURNHAM HARBOR             71      40/  8/ 10   N/A
CALUMET HARBOR             73     360/  7/ 10   N/A
BURNS HARBOR               74      50/  9/ 10 1017.3F
MICHIGAN CITY              71     360/  7/  9   N/A
MICHIGAN CITY 6N           72 74   30/  6/  8   N/A           1/ 4
ST. JOSEPH                 71 77   30/  8/ 10   N/A           1/ 4
$$

ILZ025>027-034>036-040-047-049-050-058-095>099-042100-
WEST-CENTRAL ILLINOIS

CITY           SKY/WX    TMP DP  RH WIND       PRES   REMARKS
QUINCY         MOSUNNY   92  65  40 S7        29.98F HX  94
$$

ILZ028>032-037-038-041>044-048-051>054-059>061-042100-
CENTRAL ILLINOIS

CITY           SKY/WX    TMP DP  RH WIND       PRES   REMARKS
DECATUR        SUNNY     95  65  37 W7        30.00F HX  97
PEORIA         MOSUNNY   93  66  40 W5        29.99S HX  96
SPRINGFIELD    MOSUNNY   95  66  38 SW9       29.99S HX  98
TAYLORVILLE    NOT AVBL
$$

ILZ033-039-045-046-055>057-062-063-042100-
EAST-CENTRAL ILLINOIS

CITY           SKY/WX    TMP DP  RH WIND       PRES   REMARKS
CHAMPAIGN      MOSUNNY   91  68  46 VRB5      30.00F HX  95
MATTOON        MOSUNNY   93  63  36 SE5       30.00F HX  94
$$

ILZ079-100>102-042100-
SOUTHWEST ILLINOIS

CITY           SKY/WX    TMP DP  RH WIND       PRES   REMARKS
ALTON          PTSUNNY   90  68  48 SW6       30.00F HX  93
BELLEVILLE     MOSUNNY   92  72  51 E7        29.99F HX 100
CAHOKIA*       MOSUNNY   93  66  40 S9        29.99F HX  96
SPARTA*        MOSUNNY   90  70  51 SW3       30.02F HX  95
$$

ILZ064>066-069>071-074>076-080>082-084>086-088>090-092>094-042100-
SOUTH-CENTRAL ILLINOIS

CITY           SKY/WX    TMP DP  RH WIND       PRES   REMARKS
CARBONDALE     PTSUNNY   90  69  50 VRB5      30.01F HX  94
MARION         MOSUNNY   93  68  43 SW6       30.02F HX  97
MT. VERNON     SUNNY     93  66  40 CALM      30.02F HX  96
SALEM*         MOSUNNY   93  67  42 SW8       30.01F HX  97
$$

ILZ067-068-072-073-078-083-087-091-042100-
SOUTHEAST ILLINOIS

CITY           SKY/WX    TMP DP  RH WIND       PRES   REMARKS
LAWRENCEVILLE  SUNNY     94  64  37 VRB3      30.01F HX  95
FLORA*         SUNNY     93  64  38 SW7       30.01F HX  94
ROBINSON*      SUNNY     92  67  42 S3        30.01F HX  96
$$

ABBREVIATIONS USED IN REMARKS
   TC - TEMPERATURE IN CELSIUS
  WCI - WIND CHILL INDEX
   HX - HEAT INDEX
  VSB - VISIBILITY
$$



USA.gov is the U.S. government's official web portal to all federal, state and local government web resources and services.